This is the latest recevied weather packets stored in our database for station/object JA7ZQY-10. If no packets are shown the sender has not sent any weather packets the latest 1 day(s).
| Time | Temp. | Humidity | Pressure | Rain* | Wind** | Luminosity | Snow |
|---|---|---|---|---|---|---|---|
| 1778093090 | 11.67° C | 70% | 1015.4 hPa | 0 mm | - | - | - |
| 1778091891 | 12.22° C | 70% | 1015.3 hPa | 0 mm | - | - | - |
| 1778090090 | 12.22° C | 64% | 1015.8 hPa | 0 mm | - | - | - |
| 1778088890 | 12.78° C | 62% | 1015.8 hPa | 0 mm | - | - | - |
| 1778087690 | 12.78° C | 61% | 1016 hPa | 0 mm | - | - | - |
| 1778087091 | 13.33° C | 60% | 1016.1 hPa | 0 mm | - | - | - |
| 1778084690 | 13.33° C | 58% | 1016.4 hPa | 0 mm | - | - | - |
| 1778082890 | 13.89° C | 55% | 1016.3 hPa | 0 mm | - | - | - |
| 1778082291 | 14.44° C | 55% | 1016.2 hPa | 0 mm | - | - | - |
| 1778081091 | 14.44° C | 53% | 1016.5 hPa | 0 mm | - | - | - |
| 1778079291 | 15° C | 52% | 1016.4 hPa | 0 mm | - | - | - |
| 1778077491 | 15.56° C | 51% | 1016.5 hPa | 0 mm | - | - | - |
| 1778076291 | 16.11° C | 49% | 1016.3 hPa | 0 mm | - | - | - |
| 1778075692 | 16.67° C | 47% | 1016.3 hPa | 0 mm | - | - | - |
| 1778074492 | 16.67° C | 46% | 1016 hPa | 0 mm | - | - | - |
| 1778072091 | 17.78° C | 41% | 1016.4 hPa | 0 mm | - | - | - |
| 1778070291 | 17.78° C | 42% | 1016.6 hPa | 0 mm | - | - | - |
| 1778069089 | 17.78° C | 42% | 1016.9 hPa | 0 mm | - | - | - |
| 1778068490 | 17.78° C | 42% | 1016.8 hPa | 0 mm | - | - | - |
| 1778067290 | 17.78° C | 41% | 1016.9 hPa | 0 mm | - | - | - |
| 1778064889 | 18.33° C | 41% | 1017 hPa | 0 mm | - | - | - |
| 1778064290 | 18.89° C | 41% | 1016.8 hPa | 0 mm | - | - | - |
| 1778063690 | 18.89° C | 41% | 1016.8 hPa | 0 mm | - | - | - |
| 1778063091 | 19.44° C | 41% | 1016.8 hPa | 0 mm | - | - | - |
| 1778061291 | 19.44° C | 40% | 1016.7 hPa | 0 mm | - | - | - |
* Rain latest hour (hover to see other rain measurements)
** Current wind speed in m/s (hover to see current wind gust speed)